Regional Weather Roundup
Issued by NWS

Home | Current Version | Previous Version | Graphics & Text | Print | Product List | Glossary On
Versions: 1 2 3 4 5 6 7 8 9 10 11 12 13 14 15 16 17 18 19 20 21 22 23 24 25 26 27 28 29 30 31 32 33 34 35 36 37 38 39 40 41 42 43 44 45 46 47 48 49 50
000
ASUS43 KIND 261409
RWRIN

WEATHER ROUNDUP FOR INDIANA
NATIONAL WEATHER SERVICE INDIANAPOLIS IN
900 AM EST MON JAN 26 2015

NOTE: "FAIR" INDICATES FEW OR NO CLOUDS BELOW 12,000 FEET WITH NO
SIGNIFICANT WEATHER AND/OR OBSTRUCTIONS TO VISIBILITY.

* - STATION DOES NOT REPORT WEATHER SUCH AS PRECIPITATION OR FOG.

+ - STATION NOT QUALITY CONTROLLED BY THE NATIONAL WEATHER SERVICE.
    USE DATA WITH CAUTION...ESPECIALLY DEWPOINT AND RELATIVE
    HUMIDITY OBSERVATIONS.

INZ001>003-010>013-019-020-261500-
NORTHWEST INDIANA

CITY           SKY/WX    TMP DP  RH WIND       PRES   REMARKS
GARY /AIRPORT/ MOCLDY    18   9  68 SE6       29.98F WCI   9
KNOX *+        PTCLDY    13   2  64 CALM      29.96S
LA PORTE +     PTCLDY    14  11  87 CALM      29.96F
MICHIGAN CITY+ PTCLDY    14   9  79 CALM      29.96F
MONTICELLO +   CLEAR     14  10  83 CALM      29.97R
RENSSELAER +   PTCLDY    18  16  93 NE3       29.96F
VALPARAISO     PTCLDY    12   9  87 E3        29.95F

$$

LMZ046-743>745-261500-
SOUTHERN LAKE MICHIGAN

STATION/POSITION TIME  TEMP WIND        PRES
                       AIR  DIR/SP/G
                 (UTC) (F)  (DEG/KT/KT) (MB)
MICHIGAN CITY    1400   15   90/  3/  4   N/A

$$

INZ004-005-014>016-021>024-261500-
NORTH CENTRAL INDIANA

CITY           SKY/WX    TMP DP  RH WIND       PRES   REMARKS
ELKHART        CLEAR     12   7  79 CALM      29.97S
GOSHEN         PTCLDY    12   9  87 N6        29.96R WCI   3
LOGANSPORT +   CLEAR     14  10  85 CALM      29.98R
PERU/GRISSOM   MOCLDY    11   7  83 CALM      29.95R
ROCHESTER +    PTCLDY    16  12  86 N3        29.97R
SOUTH BEND     PTCLDY    13   8  81 NE3       29.96F
WARSAW +       PTCLDY    10   9  92 CALM      29.95S

$$

INZ006>009-017-018-025>027-261500-
NORTHEAST INDIANA

CITY           SKY/WX    TMP DP  RH WIND       PRES   REMARKS
ANGOLA *+      CLEAR      7   5  92 CALM      29.93R
AUBURN +       PTCLDY    10   7  85 N5        29.95R WCI   2
FORT WAYNE     MOCLDY    10   6  84 N6        29.95R WCI   0
HUNTINGTON +   PTCLDY    11   4  72 N3        29.95R

$$

INZ028-029-035-036-043>045-051>053-261500-
WEST CENTRAL INDIANA

CITY           SKY/WX    TMP DP  RH WIND       PRES   REMARKS
CRAWFORDSVL +  PTCLDY    18  12  79 NW6       29.97R WCI   9
GREENCASTLE +  CLOUDY    23  16  74 NW8       29.96R WCI  14
LAFAYETTE      CLEAR     15  11  83 CALM      29.97S
TERRE HAUTE    CLOUDY    26  20  77 N10       29.98R WCI  16

$$

INZ030>032-037>040-046>048-054>057-064-065-261500-
CENTRAL INDIANA

CITY           SKY/WX    TMP DP  RH WIND       PRES   REMARKS
ANDERSON       CLEAR     16   9  73 NW12      29.94  WCI   3
CP ATTERBURY + CLEAR     21  18  86 NW6       29.96R WCI  14
COLUMBUS       SUNNY     21  16  79 N9        29.96R WCI  11
GREENWOOD *+   CLEAR     21  12  68 N6        29.95  WCI  14
INDIANAPOLIS   MOCLDY    20  14  77 N6        29.94R WCI  12
-EAGLE CREEK   PTCLDY    21  13  71 N7        29.94R WCI  12
KOKOMO *+      PTCLDY    12   7  79 CALM      29.96R
MARION +       PTCLDY    13   8  79 N5        29.95R WCI   5
MT COMFORT *+  CLEAR     19   9  63 NW6       29.94R WCI  11
SHELBYVILLE    FAIR      20  13  74 N8        29.94R WCI  10
ZIONSVILLE +   CLEAR     20  12  71 N5        29.95R WCI  14

$$

INZ033-034-041-042-049-050-058-059-261500-
EAST CENTRAL INDIANA

CITY           SKY/WX    TMP DP  RH WIND       PRES   REMARKS
MUNCIE         PTCLDY    14   8  77 N8        29.93R WCI   3

$$

INZ060-061-067>069-081>083-085>088-261500-
SOUTHWEST INDIANA

CITY           SKY/WX    TMP DP  RH WIND       PRES   REMARKS
EVANSVILLE     CLOUDY    32  25  75 NW5       30.01R WCI  27
HUNTINGBURG *+ CLOUDY    28  21  74 N6        29.98R WCI  22
WASHINGTON +   CLOUDY    28  23  79 NW9       29.99R WCI  20

$$

INZ062-063-066-070>080-084-089>092-261500-
SOUTH CENTRAL AND SOUTHEAST INDIANA

CITY           SKY/WX    TMP DP  RH WIND       PRES   REMARKS
BLOOMINGTON    CLOUDY    24  18  77 N7        29.95R WCI  16
NORTH VERNON + CLOUDY    23  21  93 N9        29.93R WCI  13

$$




USA.gov is the U.S. government's official web portal to all federal, state and local government web resources and services.